This is the latest recevied weather packets stored in our database for station/object EA1IXY-2. If no packets are shown the sender has not sent any weather packets the latest 10 day(s).
| Time | Temp. | Humidity | Pressure | Rain* | Wind** | Luminosity | Snow |
|---|---|---|---|---|---|---|---|
| 1777457131 | 38.89° C | 17% | 921.7 hPa | - | - | - | - |
| 1777456751 | 38.89° C | 17% | 921.7 hPa | - | - | - | - |
| 1777456231 | 38.89° C | 17% | 921.7 hPa | - | - | - | - |
| 1777455331 | 38.89° C | 17% | 921.7 hPa | - | - | - | - |
| 1777454430 | 38.89° C | 17% | 921.7 hPa | - | - | - | - |
| 1777453530 | 39.44° C | 17% | 921.6 hPa | - | - | - | - |
| 1777452630 | 39.44° C | 17% | 921.6 hPa | - | - | - | - |
| 1777451730 | 38.89° C | 17% | 921.7 hPa | - | - | - | - |
| 1777450830 | 39.44° C | 17% | 921.6 hPa | - | - | - | - |
| 1777449930 | 38.89° C | 17% | 921.6 hPa | - | - | - | - |
| 1777449030 | 38.89° C | 16% | 921.6 hPa | - | - | - | - |
| 1777448130 | 38.33° C | 16% | 921.5 hPa | - | - | - | - |
| 1777447230 | 36.67° C | 18% | 921.6 hPa | - | - | - | - |
| 1777446318 | 37.22° C | 17% | 921.4 hPa | - | - | - | - |
| 1777445418 | 38.89° C | 17% | 921.3 hPa | - | - | - | - |
| 1777444518 | 38.89° C | 18% | 921.4 hPa | - | - | - | - |
| 1777443618 | 39.44° C | 18% | 921.2 hPa | - | - | - | - |
| 1777442718 | 39.44° C | 18% | 921.2 hPa | - | - | - | - |
| 1777441818 | 39.44° C | 18% | 921.2 hPa | - | - | - | - |
| 1777440918 | 38.89° C | 18% | 921 hPa | - | - | - | - |
| 1777440018 | 39.44° C | 18% | 921.1 hPa | - | - | - | - |
| 1777439118 | 39.44° C | 18% | 921.1 hPa | - | - | - | - |
| 1777438217 | 39.44° C | 18% | 921.3 hPa | - | - | - | - |
| 1777437317 | 39.44° C | 18% | 921.3 hPa | - | - | - | - |
| 1777436417 | 38.33° C | 18% | 920.4 hPa | - | - | - | - |
* Rain since midnight (hover to see other rain measurements)
** Current wind speed in m/s (hover to see current wind gust speed)